Live-Position
3D-Globus wird geladen...
Über Starlink 4425
Group: 3 satellites
Beschreibung wird geladen...
Nächste Überflüge
Passes for default location (London). Set your location on the main map for personalized predictions.
Höhenverlauf
Loading altitude history...
No altitude history available
Zweizeiliger Elementsatz
1 53208U 22084V 26129.75579289 .00001054 00000-0 77164-4 0 9995
2 53208 97.5121 190.1509 0001268 124.7358 235.3989 15.05636957208496
Epoch: 9. Mai 2026 •
Age: 6 hours
Aktueller Status
Höhe 553.0 km
Geschwindigkeit 7.59 km/s
Subsatellitenpunkt 0.99°N,
45.4°W
Startdatum 22. Juli 2022
Alter 3.7 years
Typ internet
Startgruppe
Falcon 9 •
Group 3-2 •
40 satellites
Starlink 4391
53189
Starlink 4332 53190
Starlink 4369 53191
Starlink 4375 53192
Starlink 4351 53193
Starlink 4382 53194
Starlink 4403 53197
Starlink 4385 53198
Starlink 4395 53199
Starlink 4417 53200
Starlink 4405 53201
Starlink 4411 53202
Starlink 4409 53203
Starlink 4410 53204
Starlink 4397 53205
Starlink 4408 53206
Starlink 4413 53207
Starlink 4423 53209
Starlink 4427 53210
Starlink 4416 53212
...and 19 more
Technische Details
Klassifizierung Payload
Masse 297.00 kg
Trockenmasse 275.00 kg
Gesamtmasse 297.00 kg
Länge 0.20 m
Durchmesser 2.80 m
Spannweite 9.00 m
Form Box + pan
Hersteller SPXS
Bus-Typ Starlink
Phasenstatus In Orbit
Besitzer/Staat SPXS/US
Most Searched
Loading...